Location: Oakland
(41.0130°N, 74.2650°W)
Time: 02:37:30
(UTC-04:00)

Daily predictions for brighter satellites

Satellite Brightness Start Highest point End
(mag) Time Altitude Azimuth Time Altitude Azimuth Time Altitude Azimuth
CZ-2D R/B 4.5 03:01:46 10° NNE 03:03:24 19° NE 03:03:24 19° NE
Resurs 1-4 Rocket 4.1 03:17:07 10° NNE 03:19:15 24° NE 03:19:15 24° NE
Cosmos 2227 Rocket 3.8 03:25:43 30° NE 03:25:43 30° NE 03:28:48 10° NE
Cosmos 2297 Rocket 3.6 03:33:43 33° ENE 03:33:43 33° ENE 03:37:28 10° NE
Cosmos 2344 3.7 03:37:35 72° N 03:37:35 72° N 03:45:35 10° NE
NOSS 3-4 (A) 4.2 03:39:28 51° NE 03:39:28 51° NE 03:44:17 10° NE
NOSS 3-4 (C) 4.2 03:39:34 51° NE 03:39:34 51° NE 03:44:23 10° NE
ATLAS 2AS CENTAUR R/B 4.5 03:58:45 22° NW 03:59:35 22° NNW 04:05:40 10° NNE
SL-16 R/B 4.2 04:10:05 20° NNW 04:10:05 20° NNW 04:11:54 10° NNW
Cosmos 2082 4.2 04:07:17 52° NNE 04:07:17 52° NNE 04:11:29 10° NNE
ADEOS II 4.5 04:10:09 10° NE 04:13:56 20° E 04:17:43 10° SE
Lacrosse 5 2.8 04:24:09 39° N 04:24:09 39° N 04:27:55 10° NE
Okean O Rocket 2.1 04:24:47 10° NNE 04:28:30 57° NE 04:28:30 57° NE
Cosmos 1726 Rocket 4.4 04:24:49 10° N 04:28:05 45° NNE 04:28:05 45° NNE
ATLAS 5 CENTAUR R/B 3.8 04:33:20 25° S 04:33:20 25° S 04:35:59 10° SSE
Cosmos 2298 Rocket 4.3 04:30:00 52° SSE 04:31:02 63° ESE 04:36:18 10° NNE
Cosmos 724 4.3 04:30:24 10° NNW 04:36:40 87° ENE 04:42:54 10° SSE
CZ-4B R/B 3.5 04:31:44 10° NNE 04:37:09 65° ESE 04:40:08 27° S
Lacrosse 5 rocket 4.0 04:41:17 12° NNW 04:41:35 12° NNW 04:43:26 10° N
Cosmos 1892 Rocket 3.5 04:43:24 84° E 04:43:24 84° E 04:47:54 10° N
Cosmos 2150 Rocket 4.1 04:42:56 46° S 04:44:26 72° ESE 04:49:34 10° NNE
USA 215 3.3 04:38:09 10° SSE 04:44:30 52° SW 04:45:11 50° WSW
Thor Agena Rocket 4.2 04:40:15 10° SSE 04:45:25 56° ENE 04:50:35 10° N
ADEOS Rocket 3.6 04:39:25 10° NNE 04:46:25 63° E 04:52:37 10° S
CZ-2D R/B 3.5 04:42:03 10° N 04:44:44 24° NNW 04:44:44 24° NNW
Meteor 1-19 Rocket 4.2 04:46:45 57° WNW 04:46:45 57° WNW 04:52:16 10° N
Cosmos 2100 Rocket 3.9 04:42:03 10° N 04:48:20 88° E 04:54:39 10° S
Meteor 2-4 Rocket 3.7 04:48:10 45° SSW 04:50:04 75° W 04:56:02 10° N
BREEZE-M DEB (TANK) 2.9 04:50:16 78° N 04:50:16 78° N 04:52:52 10° NE
Cosmos 2228 3.7 04:46:23 10° N 04:50:43 56° E 04:55:00 10° SSE
Cosmos 1802 Rocket 4.1 04:46:05 10° N 04:52:16 76° E 04:58:23 10° SSE
CENTAUR R/B 3.3 04:45:03 10° NNW 04:52:53 72° NE 05:01:13 10° SE
Cosmos 2061 Rocket 4.0 04:47:52 10° N 04:54:13 88° E 05:00:37 10° S
IRS-1C Rocket 4.0 04:51:42 10° N 04:56:57 67° WNW 04:58:22 47° SW
SL-16 R/B 2.1 04:51:51 10° NNW 04:57:32 69° WSW 05:03:08 10° SSE
Meteor 2-9 Rocket 4.1 04:54:45 10° NNW 05:00:25 71° W 05:06:11 10° S
CZ-4B R/B 3.0 04:56:19 10° N 05:00:47 76° WNW 05:01:53 50° SSW
Resurs 1-4 Rocket 3.7 04:57:48 10° NNW 05:00:21 19° NW 05:00:21 19° NW
NOSS 2-2 (D) 4.1 05:00:15 32° S 05:01:53 52° ESE 05:06:22 10° NE
Meteor 1-23 Rocket 4.1 04:59:59 37° SSW 05:02:09 65° WNW 05:07:51 10° N
NOSS 3-2 (C) 4.5 05:04:00 34° W 05:04:58 35° WSW 05:12:07 10° S
Cosmos 1898 Rocket 3.5 05:04:52 40° SW 05:06:41 66° WNW 05:11:58 10° NNE
Cosmos 2227 Rocket 3.3 05:07:34 27° WNW 05:07:39 27° NW 05:12:24 10° N
Cosmos 2098 Rocket 3.3 05:08:31 10° N 05:12:41 80° E 05:18:00 10° S
Okean 2 3.7 05:13:04 45° WNW 05:13:04 45° WNW 05:16:50 10° N
Cosmos 858 Rocket 4.5 05:11:52 33° SW 05:14:09 63° WNW 05:19:26 10° NNE
Cosmos 1000 Rocket 4.4 05:09:03 10° SSW 05:15:20 68° W 05:21:39 10° N
Cosmos 1937 Rocket 3.4 05:12:42 24° SSW 05:15:54 77° WNW 05:21:13 10° NNE
Cosmos 2297 Rocket 3.0 05:15:34 29° WNW 05:16:21 30° WNW 05:21:19 10° N
NOSS 2-2 (C) 3.6 05:15:13 30° SSW 05:17:13 77° ESE 05:21:55 10° NE
DELTA 2 R/B (1) 3.5 05:15:21 36° WSW 05:17:39 76° S 05:23:14 10° E
NOSS 2-2 (E) 3.5 05:16:26 33° SSW 05:18:17 88° ESE 05:23:08 10° NE
Cosmos 2016 Rocket 3.9 05:13:21 10° N 05:19:42 80° W 05:25:56 10° S
CZ-2C R/B 4.2 05:22:06 35° WSW 05:22:14 35° W 05:26:30 10° NNW
Tiangong 1 1.1 05:22:33 56° NW 05:22:56 64° N 05:25:56 10° E
Cosmos 2173 Rocket 4.0 05:18:47 10° NNW 05:24:41 52° W 05:30:36 10° SSW
EXPRESS MD2 3.3 05:24:17 35° WNW 05:25:42 84° SSW 05:31:45 10° SE
Cosmos 2058 Rocket 3.5 05:23:53 10° NNW 05:27:56 38° W 05:31:57 10° SSW
Cosmos 1459 Rocket 4.2 05:23:15 10° NNW 05:29:19 47° W 05:35:17 10° SSW
SL-08 R/B 4.4 05:23:07 10° N 05:29:23 80° W 05:35:43 10° S
Cosmos 967 Rocket 4.5 05:24:50 16° SW 05:30:07 78° WNW 05:36:34 10° NNE
Cosmos 1346 Rocket 4.3 05:33:38 20° NW 05:33:38 20° NW 05:36:00 10° NNW
USA 116 4.1 05:27:52 10° S 05:32:53 80° WSW 05:37:25 10° NNW
FALCON 9 R/B 4.2 05:28:31 16° SW 05:34:13 52° SSE 05:58:53 10° E
Meteor 2-15 4.4 05:30:12 10° SSW 05:36:10 62° W 05:42:12 10° N
Okean-O 2.5 05:33:36 10° N 05:38:02 71° WNW 05:42:26 10° SSW
Cosmos 1943 4.4 05:32:59 10° NNW 05:38:22 43° ENE 05:43:42 10° SE
COSMO-SKYMED 1 4.4 05:34:45 10° SE 05:38:40 35° ENE 05:42:38 10° N
Cosmos 2123 Rocket 3.9 05:33:15 10° S 05:39:25 79° W 05:45:37 10° N
Cosmos 1603 3.6 05:39:34 10° NNW 05:45:18 75° WSW 05:50:57 10° SSE
Cosmos 2263 Rocket 3.8 05:44:09 10° S 05:49:12 37° ESE 05:54:17 10° NE
Cosmos 1626 Rocket 3.8 05:49:04 10° SSW 05:53:17 46° W 05:57:29 10° N
ADEOS II 2.3 05:48:51 10° N 05:53:56 50° WNW 05:58:59 10° SW
MOS 1 Rocket 3.4 05:51:53 10° N 05:56:45 73° WNW 06:01:54 10° SSW
Genesis I 3.6 05:54:18 15° SW 05:57:27 47° NW 06:01:19 10° NNE
Cosmos 468 4.5 05:56:14 10° NNW 06:01:29 83° WSW 06:06:43 10° SSE
BREEZE-M DEB (TANK) 3.3 05:50:11 10° WNW 06:02:06 73° SW 06:05:36 10° SE
Cosmos 1766 4.4 05:59:04 10° N 06:02:59 49° E 06:06:51 10° SSE
SeaSat 1 4.4 06:00:04 10° ESE 06:04:20 30° NE 06:08:36 10° N
Okean O Rocket 3.5 06:03:12 10° NW 06:04:58 12° WNW 06:05:58 11° WNW
Lacrosse 5 3.8 06:03:59 10° NW 06:07:09 16° NNW 06:10:17 10° NNE
Meteor 1-31 Rocket 2.9 06:03:34 10° N 06:07:24 53° WNW 06:11:14 10° SSW
COBE Rocket 3.9 06:03:51 10° N 06:08:30 54° WNW 06:13:01 10° SSW
Cosmos 1515 4.5 06:06:07 10° SW 06:09:31 30° WNW 06:12:55 10° NNW
Cosmos 1953 Rocket 4.2 06:08:12 10° S 06:12:36 64° E 06:17:03 10° NNE
USA 129 2.7 06:12:34 10° SSW 06:13:59 19° W 06:15:17 10° NW
Cosmos 1340 2.9 06:14:50 10° SSW 06:18:29 47° WNW 06:22:11 10° N
Cosmos 1048 Rocket 3.9 06:17:02 10° NNW 06:22:11 83° WSW 06:27:18 10° SSE
Lacrosse 5 rocket 4.1 06:21:40 10° N 06:22:42 11° N 06:23:43 10° NNE
Ariane Rocket 3.1 06:17:36 10° NNE 06:22:45 87° ESE 06:27:51 10° SSW
CZ-4B R/B 4.4 06:21:04 10° N 06:24:36 34° WNW 06:28:00 10° SW
Cosmos 1758 Rocket 3.8 06:21:27 10° S 06:25:45 77° E 06:30:04 10° N
Cosmos 2233 Rocket 4.1 06:20:01 10° NNW 06:26:09 58° W 06:32:11 10° S
Cosmos 1269 Rocket 4.0 06:21:04 10° NNW 06:26:18 66° WSW 06:31:31 10° S
OAO 2 Rocket 4.2 06:21:17 10° WSW 06:26:19 44° S 06:31:22 10° ESE
SKYMED 2 3.5 06:22:19 10° S 06:26:38 68° W 06:30:59 10° NNW
ADEOS Rocket 4.3 06:25:47 10° N 06:31:13 25° WNW 06:36:16 10° WSW
